Location: Unspecified
(0.0000°N, 0.0000°E)
Time: 07:34:30
(UTC+00:00)

deb r/b Ablestar - Pass Details

Date: 07 March 2026
Orbit: 937 x 1853 km, 67.2° (Epoch: 14 April)

Event Time Altitude Azimuth Distance (km) Brightness Sun altitude
Rises 19:29:32 0° 359° (N) 5,058 ? -19.6°
Reaches altitude 10° 19:33:02 10° 8° (N) 4,135 ? -20.4°
Maximum altitude 19:42:42 38° 71° (ENE) 2,603 ? -22.8°
Enters shadow 19:45:23 34° 98° (E) 2,751 ? -23.5°
